Regional Weather Roundup
Issued by NWS

Home | Current Version | Previous Version | Graphics & Text | Print | Product List | Glossary On
Versions: 1 2 3 4 5 6 7 8 9 10 11 12 13 14 15 16 17 18 19 20 21 22 23 24 25 26 27 28 29 30 31 32 33 34 35 36 37 38 39 40 41 42 43 44 45 46 47 48 49 50
000
ASUS43 KDTX 240210
RWRMI
MICHIGAN HOURLY REGIONAL WEATHER ROUNDUP
NATIONAL WEATHER SERVICE DETROIT/PONTIAC MI
1000 PM EDT WED JUL 23 2014

NOTE: "FAIR" INDICATES FEW OR NO CLOUDS BELOW 12,000 FEET WITH NO
SIGNIFICANT WEATHER AND/OR OBSTRUCTION TO VISIBILITY.

MIZ047>049-052>055-059>063-066>070-074>076-081>083-240300-
SOUTHEAST LOWER MICHIGAN

CITY           SKY/WX    TMP DP  RH WIND       PRES   REMARKS
ADRIAN         MOCLDY    68  56  65 NE7       30.08R
ALMA           MOCLDY    61  54  76 NW3       30.13R
ANN ARBOR      CLOUDY    67  54  63 NE7       30.08R
BAD AXE        PTCLDY    59  50  72 CALM      30.11S
CARO           CLOUDY    64  53  69 CALM      30.11R
DETROIT CITY   CLEAR     67  54  63 N8        30.08S
DETROIT        MOCLDY    66  55  67 N13       30.08R
FLINT          PTCLDY    65  53  65 NE8       30.11R
GROSSE ILE     CLEAR     64  57  77 NE7       30.06S
HILLSDALE      MOCLDY    67  58  72 CALM      30.09R
HOWELL         CLOUDY    65  55  70 NE3       30.10R

CITY           SKY/WX    TMP DP  RH WIND       PRES   REMARKS
JACKSON        MOCLDY    66  57  72 NE6       30.09R
LAMBERTVILLE   PTCLDY    63  57  82 CALM      30.07S
LANSING        PTCLDY    64  55  72 N5        30.11R
LAPEER         FAIR      58  52  79 CALM      30.12R
MASON          CLOUDY    65  56  72 N6        30.10R
MONROE         PTCLDY    64  57  77 E6        30.06S
MT. CLEMENS    CLEAR     60  53  76 N7        30.08R
PONTIAC        PTCLDY    63  54  72 NE7       30.10R
PORT HOPE        N/A     65  53  65 CALM      30.09R
PORT HURON     CLEAR     55  54  94 NW3       30.09S
TRI CITIES     CLOUDY    67  56  67 VRB3      30.12R
TROY           CLEAR     65  55  69 N7        30.10S
SAGINAW HB     CLOUDY    63  50  63 E3        30.11R
$$
MIZ043>046-050>051-056>058-064>065-071>073-077>080-240300-
SOUTHWEST LOWER MICHIGAN

CITY           SKY/WX    TMP DP  RH WIND       PRES   REMARKS
BATTLE CREEK   CLEAR     66  54  65 NE10      30.11R
BENTON HARBOR  CLEAR     61  57  87 VRB5      30.11R
BIG RAPIDS     PTCLDY    60  52  75 CALM      30.14S
COLDWATER      MOCLDY    68  56  65 N9        30.09R
FREMONT        FAIR      60  48  64 N5        30.14S
HOLLAND        PTCLDY    65  57  75 VRB5      30.13R
GRAND RAPIDS   PTCLDY    63  54  72 N6        30.12R
IONIA          FAIR      61  54  78 N5        30.11S
KALAMAZOO      MOCLDY    67  55  65 N7        30.11R
LUDINGTON      CLEAR     57  53  86 N3        30.16S
MARSHALL       CLEAR     64  55  74 N3        30.10R
MOUNT PLEASANT MOCLDY    63  55  75 CALM      30.13R
MUSKEGON       PTCLDY    64  52  64 N10       30.14R
SOUTH HAVEN    CLEAR     62  59  91 N6        30.11R
$$
MIZ016>042-240300-
NORTHERN LOWER MICHIGAN

CITY           SKY/WX    TMP DP  RH WIND       PRES   REMARKS
ALPENA         PTCLDY    60  51  72 NW10      30.13R
BEAVER ISLAND  CLEAR     60  50  69 N3        30.17S
BELLAIRE       MOCLDY    63  51  64 N5        30.15R
CADILLAC       MOCLDY    57  49  75 N6        30.16R
CHARLEVOIX     CLEAR     63  54  72 N12       30.18S
FRANKFORT      CLEAR     62  51  68 N5        30.16S
GAYLORD        CLEAR     58  51  78 CALM      30.16R
GRAYLING       CLEAR     56  53  89 NW5       30.16R
HARBOR SPRINGS CLEAR     60  50  68 N5        30.16R
HOUGHTON LAKE  CLOUDY    61  52  72 N3        30.15R
MANISTEE       CLEAR     59  50  72 N5        30.17S
OSCODA         PTCLDY    60  49  67 N6        30.11R
PELLSTON       CLEAR     60  49  66 N8        30.16R
ROGERS CITY    PTCLDY    60  53  77 NW10G17   30.14R
TRAVERSE CITY  PTCLDY    63  51  65 N5        30.15R
$$
MIZ007>008-015-240300-
EASTERN UPPER MICHIGAN

CITY           SKY/WX    TMP DP  RH WIND       PRES   REMARKS
KINROSS        CLEAR     55  48  76 NW9       30.15R
MACKINAC ISLAN CLEAR     58  50  74 N6        30.16R
NEWBERRY       PTCLDY    52  46  80 NW3       30.16S
S. S. MARIE    CLEAR     53  46  77 W7        30.14R
MUNISING         N/A     54  47  77 S5        30.17S
$$
MIZ004>006-011>014-085-240300-
CENTRAL UPPER MICHIGAN

CITY           SKY/WX    TMP DP  RH WIND       PRES   REMARKS
MANISTIQUE     CLEAR     52  46  78 CALM      30.17S
ESCANABA       CLEAR     61  43  51 N5        30.17S
MENOMINEE      CLEAR     63  50  63 E8        30.16S
SAWYER-GWINN   CLEAR     59  46  63 N6        30.19S
$$
MIZ001>003-009>011-084-240300-
WESTERN UPPER MICHIGAN

CITY           SKY/WX    TMP DP  RH WIND       PRES   REMARKS
IRON MOUNTAIN  CLEAR     63  47  55 E6        30.17R
HOUGHTON       CLEAR     56  48  74 N6        30.18F
COPPER HARBOR    N/A     59  51  75 W3        30.17F
$$

ABBREVIATIONS USED IN REMARKS
   TC - TEMPERATURE IN CELSIUS
  WCI - WIND CHILL INDEX
   HX - HEAT INDEX
  VSB - VISIBILITY



USA.gov is the U.S. government's official web portal to all federal, state and local government web resources and services.